Bookmark and Share
Track history (hours):
 

Island Venture

More information available from US FCC via Universal Licensing System and Coast Guard Vessel Documentation Center.

Last reported at 2014-Apr-23 04:08 UTC. Time now 2014-Apr-23 09:42 UTC.
Position N 47°34' W 122°21'.

Type: Tug. MMSI: 367529420.

NotesDate/timePositionNaut miles runAvg speedWind from/ knotsBaromVisibWave heightAir tempDewpointWater temp
2014-Apr-23 04:08N 47°34' W 122°21'0 4.6
2014-Apr-23 04:05N 47°34' W 122°21'0 0.1
2014-Apr-23 03:33N 47°34' W 122°21'0 0.0
2014-Apr-23 03:30N 47°34' W 122°21'1 1.5
2014-Apr-23 02:33N 47°35' W 122°22'0 2.6
2014-Apr-23 02:30N 47°35' W 122°22'3 3.0
2014-Apr-23 01:33N 47°35' W 122°26'0 6.4
2014-Apr-23 01:30N 47°34' W 122°26'7 7.0
2014-Apr-23 00:33N 47°28' W 122°31'1 7.0
2014-Apr-23 00:25N 47°27' W 122°31'6 6.8
2014-Apr-22 23:33N 47°22' W 122°32'8 8.0
2014-Apr-22 22:33N 47°14' W 122°35'6 6.4
2014-Apr-22 21:33N 47°08' W 122°39'0 0.0
2014-Apr-22 17:33N 47°08' W 122°39'0 0.0
2014-Apr-22 16:32N 47°08' W 122°39'1 0.6
2014-Apr-22 15:31N 47°09' W 122°38'0 0.1
2014-Apr-22 14:33N 47°09' W 122°38'6 5.5
2014-Apr-22 13:33N 47°14' W 122°35'6 5.6
2014-Apr-22 12:33N 47°19' W 122°34'3 3.5
2014-Apr-22 11:33N 47°22' W 122°32'4 3.7
2014-Apr-22 10:33N 47°26' W 122°32'0 3.4
2014-Apr-22 10:26N 47°26' W 122°32'3 3.6
2014-Apr-22 09:33N 47°29' W 122°30'0 3.3
2014-Apr-22 09:31N 47°30' W 122°30'4 3.9
2014-Apr-22 08:33N 47°33' W 122°28'2 5.6
2014-Apr-22 08:17N 47°34' W 122°26'3 4.0
2014-Apr-22 07:33N 47°35' W 122°22'0 2.0
2014-Apr-22 07:32N 47°35' W 122°22'1 0.9
2014-Apr-22 06:33N 47°34' W 122°21'0 0.0
2014-Apr-22 06:31N 47°34' W 122°21'0 0.0
2014-Apr-22 05:47N 47°34' W 122°21'0 0.0
2014-Apr-22 05:33N 47°34' W 122°21'0 0.0
2014-Apr-22 04:33N 47°34' W 122°21'0 0.0
2014-Apr-22 04:32N 47°34' W 122°21'0 0.0
2014-Apr-22 03:33N 47°34' W 122°21'0 0.0
2014-Apr-22 03:32N 47°34' W 122°21'0 0.4
2014-Apr-22 02:33N 47°34' W 122°21'0 0.1
2014-Apr-22 02:06N 47°34' W 122°21'0 0.3
2014-Apr-22 01:33N 47°34' W 122°21'0 0.8
2014-Apr-22 01:30N 47°34' W 122°21'3 3.1
2014-Apr-22 00:33N 47°36' W 122°25'0 5.3
2014-Apr-22 00:31N 47°35' W 122°25'6 5.9
2014-Apr-21 23:33N 47°31' W 122°29'0 6.6
2014-Apr-21 23:29N 47°30' W 122°30'7 7.2
2014-Apr-21 22:33N 47°24' W 122°32'8 7.8
2014-Apr-21 21:33N 47°16' W 122°33'7 7.1
2014-Apr-21 20:33N 47°10' W 122°39'2 1.6
2014-Apr-21 19:33N 47°08' W 122°39'0 0.0
2014-Apr-21 18:31N 47°08' W 122°39'0 0.0
2014-Apr-21 17:32N 47°08' W 122°39'0 0.0
2014-Apr-21 16:28N 47°08' W 122°39'0 0.0
2014-Apr-21 15:33N 47°08' W 122°39'0 0.4
2014-Apr-21 14:11N 47°09' W 122°39'1 2.0
2014-Apr-21 13:33N 47°10' W 122°39'6 5.5
2014-Apr-21 12:30N 47°15' W 122°34'5 5.6
2014-Apr-21 11:33N 47°20' W 122°33'6 6.9
2014-Apr-21 10:42N 47°26' W 122°32'1 7.2
2014-Apr-21 10:33N 47°27' W 122°31'7 6.9
2014-Apr-21 09:33N 47°33' W 122°27'0 5.3
2014-Apr-21 09:32N 47°33' W 122°27'4 4.5
2014-Apr-21 08:33N 47°34' W 122°21'0 2.4
2014-Apr-21 08:32N 47°34' W 122°21'1 0.6
2014-Apr-21 07:33N 47°34' W 122°21'0 0.0
2014-Apr-21 07:32N 47°34' W 122°21'1 0.0
2014-Apr-19 09:24N 47°34' W 122°21'0 0.8
2014-Apr-19 09:21N 47°34' W 122°21'0 0.2
2014-Apr-19 08:33N 47°34' W 122°21'0 0.0
2014-Apr-19 08:31N 47°34' W 122°21'0 0.0
2014-Apr-19 07:33N 47°34' W 122°21'0 0.0
2014-Apr-19 07:31N 47°34' W 122°21'0 0.0
2014-Apr-19 06:34N 47°34' W 122°21'0 0.2
2014-Apr-19 06:31N 47°34' W 122°21'0 0.0
2014-Apr-19 05:51N 47°34' W 122°21'0 0.0
2014-Apr-19 05:33N 47°34' W 122°21'1 0.6
2014-Apr-19 04:33N 47°34' W 122°21'0 2.3
2014-Apr-19 04:31N 47°34' W 122°21'3 2.9
2014-Apr-19 03:34N 47°35' W 122°25'0 6.7
2014-Apr-19 03:31N 47°35' W 122°26'7 6.9
2014-Apr-19 02:33N 47°29' W 122°30'1 6.8
2014-Apr-19 02:21N 47°28' W 122°31'6 7.3
2014-Apr-19 01:33N 47°22' W 122°32'5 4.8
2014-Apr-19 00:33N 47°17' W 122°33'2 1.7
2014-Apr-18 23:33N 47°16' W 122°34'4 4.4
2014-Apr-18 22:33N 47°12' W 122°37'4 4.0
2014-Apr-18 21:32N 47°08' W 122°39'0 0.0
2014-Apr-18 18:11N 47°08' W 122°39'0 0.0
2014-Apr-18 17:18N 47°08' W 122°39'0 0.1
2014-Apr-18 16:32N 47°08' W 122°39'1 0.5
2014-Apr-18 15:31N 47°09' W 122°38'0 0.0
2014-Apr-18 14:24N 47°09' W 122°38'0 0.0
2014-Apr-18 13:18N 47°09' W 122°38'3 3.3
2014-Apr-18 12:24N 47°11' W 122°37'7 8.1
2014-Apr-18 11:31N 47°18' W 122°33'7 7.1
2014-Apr-18 10:33N 47°25' W 122°32'6 6.1
2014-Apr-18 09:32N 47°31' W 122°29'6 5.9
2014-Apr-18 08:32N 47°36' W 122°25'0 5.4
2014-Apr-18 08:29N 47°36' W 122°24'3 3.4
2014-Apr-18 07:33N 47°34' W 122°21'0 6.3
2014-Apr-18 07:29N 47°34' W 122°21'0 0.0
2014-Apr-16 18:14N 47°34' W 122°21'0 4.8
2014-Apr-16 18:13N 47°34' W 122°21'1 1.2
2014-Apr-16 17:33N 47°35' W 122°22'0 0.0
2014-Apr-16 17:33N 47°35' W 122°22'2 1.7
2014-Apr-16 16:33N 47°34' W 122°21'0 0.0
2014-Apr-16 16:33N 47°34' W 122°21'2 2.1
2014-Apr-16 15:33N 47°36' W 122°22'0 3.0
2014-Apr-16 15:32N 47°36' W 122°22'1 1.3
2014-Apr-16 14:33N 47°34' W 122°21'0 2.2
2014-Apr-16 14:33N 47°34' W 122°21'1 0.5
2014-Apr-16 13:33N 47°34' W 122°21'0 0.0
2014-Apr-16 13:33N 47°34' W 122°21'0 0.3
2014-Apr-16 12:33N 47°34' W 122°21'0 0.0
2014-Apr-16 12:33N 47°34' W 122°21'0 0.0
2014-Apr-16 11:33N 47°34' W 122°21'0 0.7
2014-Apr-16 11:33N 47°34' W 122°21'0 0.0
2014-Apr-16 10:33N 47°34' W 122°21'0 0.0
2014-Apr-16 10:33N 47°34' W 122°21'0 0.0
2014-Apr-16 09:33N 47°34' W 122°21'0 0.4
2014-Apr-16 09:33N 47°34' W 122°21'0 0.0
2014-Apr-16 08:33N 47°34' W 122°21'0 0.0
2014-Apr-16 08:33N 47°34' W 122°21'0 0.0
2014-Apr-16 07:33N 47°34' W 122°21'0 0.0
2014-Apr-16 07:33N 47°34' W 122°21'0 0.0
2014-Apr-16 06:32N 47°34' W 122°21'0 0.0
2014-Apr-16 06:32N 47°34' W 122°21'1 0.9
2014-Apr-16 05:47N 47°34' W 122°21'0 0.1
2014-Apr-16 05:33N 47°34' W 122°21'0 0.0
2014-Apr-16 04:33N 47°34' W 122°21'0 0.9
2014-Apr-16 04:32N 47°34' W 122°21'1 1.3
2014-Apr-16 03:33N 47°36' W 122°22'0 0.3
2014-Apr-16 03:32N 47°36' W 122°22'3 2.9
2014-Apr-16 02:33N 47°34' W 122°26'0 6.1
2014-Apr-16 02:32N 47°34' W 122°26'7 6.8
2014-Apr-16 01:33N 47°28' W 122°24'1 6.8
2014-Apr-16 01:27N 47°27' W 122°23'5 5.7
2014-Apr-16 00:33N 47°22' W 122°22'5 5.4
2014-Apr-15 23:33N 47°17' W 122°26'3 2.9
2014-Apr-15 22:33N 47°15' W 122°23'0 0.4
2014-Apr-15 21:33N 47°16' W 122°23'0 0.0
2014-Apr-15 20:33N 47°16' W 122°23'0 0.2
2014-Apr-15 19:32N 47°16' W 122°23'0 0.0
2014-Apr-15 18:33N 47°16' W 122°23'0 0.2
2014-Apr-15 17:33N 47°16' W 122°23'0 0.3
2014-Apr-15 16:33N 47°16' W 122°24'0 0.0
2014-Apr-15 15:33N 47°16' W 122°24'0 0.1
2014-Apr-15 14:33N 47°16' W 122°24'2 1.1
2014-Apr-15 12:34N 47°17' W 122°26'1 1.0
2014-Apr-15 11:34N 47°18' W 122°28'2 2.2
2014-Apr-15 10:34N 47°19' W 122°30'2 2.3
2014-Apr-15 09:34N 47°21' W 122°32'7 7.8
2014-Apr-15 08:41N 47°28' W 122°31'328.9
2014-Apr-15 08:34N 47°24' W 122°32'4 3.9
2014-Apr-15 07:34N 47°28' W 122°31'819.8
2014-Apr-15 07:11N 47°35' W 122°26'2 3.2
2014-Apr-15 06:34N 47°33' W 122°27'5108.6
2014-Apr-15 06:31N 47°36' W 122°22'1 1.9
2014-Apr-15 05:51N 47°35' W 122°22'1 4.7
2014-Apr-15 05:34N 47°36' W 122°22'2 1.6
2014-Apr-15 04:31N 47°34' W 122°21'0 0.0
2014-Apr-15 03:34N 47°34' W 122°21'  

Dump ship's entire track history

sailing weather and tide predictions

Island Venture — WDG3765 — position and weather